Regional Weather Roundup
Issued by NWS

Home | Current Version | Previous Version | Text Only | Print | Product List | Glossary Off
Versions: 1 2 3 4 5 6 7 8 9 10 11 12 13 14 15 16 17 18 19 20 21 22 23 24 25 26 27 28 29 30 31 32 33 34 35 36 37 38 39 40 41 42 43 44 45 46 47 48 49 50

000
ASUS43 KMKX 010621
RWRWI

WISCONSIN REGIONAL WEATHER ROUNDUP
NATIONAL WEATHER SERVICE MILWAUKEE/SULLIVAN WI
100 AM CDT SUN MAY 01 2016

NOTE: "FAIR" INDICATES FEW OR NO CLOUDS BELOW 12,000 FEET WITH NO
SIGNIFICANT WEATHER AND/OR OBSTRUCTIONS TO VISIBILITY.

WIZ001-002-006>008-014>016-023>028-010700-
NORTHWEST WISCONSIN

CITY           SKY/WX    TMP DP  RH WIND       PRES   REMARKS
SUPERIOR ARPT  CLOUDY    38  29  71 NE7       30.23S WCI  32
6HR MIN TEMP:  37; 6HR MAX TEMP:  41;

ASHLAND        CLOUDY    37  33  85 NE9       30.21F WCI  30
6HR MIN TEMP:  36; 6HR MAX TEMP:  44;

HAYWARD        CLOUDY    37  31  78 NE7       30.17S WCI  32
6HR MIN TEMP:  37; 6HR MAX TEMP:  46;

SIREN          PTCLDY    40  31  69 NE6       30.18R
6HR MIN TEMP:  40; 6HR MAX TEMP:  49;

CUMBERLAND     CLOUDY    41  32  70 NE10      30.13S
RICE LAKE      CLOUDY    44  31  61 NE13      30.15R
6HR MIN TEMP:  43; 6HR MAX TEMP:  50;

CHETEK         CLOUDY    44  33  65 NE10G17   30.12S
6HR MIN TEMP:  44; 6HR MAX TEMP:  52;

LADYSMITH      CLOUDY    44  31  61 NE10G17   30.15S
6HR MIN TEMP:  44; 6HR MAX TEMP:  55;

EAU CLAIRE     CLOUDY    48  33  56 NE14      30.09R
6HR MIN TEMP:  48; 6HR MAX TEMP:  55;

MENOMONIE      CLOUDY    48  33  56 NE12G17   30.10R
6HR MIN TEMP:  48; 6HR MAX TEMP:  55;

NEW RICHMOND   CLOUDY    43  32  64 NE9       30.12S
6HR MIN TEMP:  43; 6HR MAX TEMP:  52;

OSCEOLA        CLOUDY    43  32  64 N6        30.16S
6HR MIN TEMP:  43; 6HR MAX TEMP:  52;

$$

WIZ003>005-009-010-017-018-010700-
NORTH CENTRAL WISCONSIN

CITY           SKY/WX    TMP DP  RH WIND       PRES   REMARKS
MANITOWISH WTR CLOUDY    37  34  89 NE7       30.15S WCI  31
6HR MIN TEMP:  37; 6HR MAX TEMP:  47;

ARBOR VITAE    PTCLDY    39  33  79 NE3       30.14S
6HR MIN TEMP:  39; 6HR MAX TEMP:  52;

WOODRUFF       PTCLDY    39  33  79 NE3       30.14S
6HR MIN TEMP:  39; 6HR MAX TEMP:  52;

RHINELANDER    PTCLDY    39  31  72 N6        30.13F WCI  35
6HR MIN TEMP:  39; 6HR MAX TEMP:  52;

EAGLE RIVER    CLOUDY    36  30  80 NE6       30.13F WCI  31
LAND O LAKES   PTCLDY    36  32  87 N6        30.15S WCI  31
6HR MIN TEMP:  36; 6HR MAX TEMP:  47;

PHILLIPS       CLOUDY    39  31  73 NE9       30.14S WCI  33
6HR MIN TEMP:  39; 6HR MAX TEMP:  53;

TOMAHAWK       CLOUDY    40  31  69 N6        30.13S
6HR MIN TEMP:  40; 6HR MAX TEMP:  53;

MEDFORD        MOCLDY    43  32  65 NE12      30.08F
6HR MIN TEMP:  43; 6HR MAX TEMP:  52;

MERRILL        CLOUDY    45  32  60 NE8       30.10S
$$

WIZ029-030-035-036-043>047-010700-
CENTRAL WISCONSIN

CITY           SKY/WX    TMP DP  RH WIND       PRES   REMARKS
WAUSAU         CLOUDY    48  30  49 NE6       30.07S
6HR MIN TEMP:  48; 6HR MAX TEMP:  54;

MOSINEE        CLOUDY    45  30  57 NE10      30.08S
MARSHFIELD     CLOUDY    48  31  51 E15       30.06S
6HR MIN TEMP:  48; 6HR MAX TEMP:  51; 6HR PCP: TRACE;

STEVENS POINT  CLOUDY    45  29  54 NE15      30.07R
6HR MIN TEMP:  45; 6HR MAX TEMP:  49;

WAUPACA        LGT RAIN  49  32  52 NE9       30.06R
6HR MIN TEMP:  48; 6HR MAX TEMP:  52;

WAUTOMA        NOT AVBL
WISC RAPIDS    CLOUDY    48  32  53 E13G21    30.07S
6HR MIN TEMP:  47; 6HR MAX TEMP:  50; 6HR PCP:  0.01;

CAMP DOUGLAS   DRIZZLE   46  45  93 NE13      30.04R
6HR MIN TEMP:  43; 6HR MAX TEMP:  46; 6HR PCP:  0.12;

$$

WIZ011>013-019>022-031-037>040-048>050-010700-
NORTHEAST WISCONSIN

CITY           SKY/WX    TMP DP  RH WIND       PRES   REMARKS
ANTIGO         CLOUDY    42  31  64 NE14      30.08F
6HR MIN TEMP:  42; 6HR MAX TEMP:  50;

SHAWANO        CLOUDY    47  32  56 NE12G18   30.09R
6HR MIN TEMP:  47; 6HR MAX TEMP:  53;

OCONTO         CLOUDY    44  33  65 N8        30.07F
6HR MIN TEMP:  44; 6HR MAX TEMP:  51;

STURGEON BAY   CLOUDY    45  32  61 N9        30.09R
6HR MIN TEMP:  45; 6HR MAX TEMP:  52;

GREEN BAY      CLOUDY    45  35  68 NE25G32   30.07R
6HR MIN TEMP:  45; 6HR MAX TEMP:  49; 6HR PCP: TRACE;

MANITOWOC      LGT RAIN  43  37  79 NE12G22   30.06R
6HR MIN TEMP:  43; 6HR MAX TEMP:  49; 6HR PCP: TRACE;

APPLETON       LGT RAIN  45  32  61 NE15G21   30.05R
CLINTONVILLE   CLOUDY    45  32  61 NE12      30.07S
OSHKOSH        CLOUDY    45  37  73 NE13G22   30.04R
6HR MIN TEMP:  45; 6HR MAX TEMP:  48; 6HR PCP:  0.04;

$$

WIZ032>034-041-042-053>061-010700-
SOUTHWEST WISCONSIN

CITY           SKY/WX    TMP DP  RH WIND       PRES   REMARKS
LA CROSSE      LGT RAIN  45  40  82 N5        30.06S
6HR MIN TEMP:  44; 6HR MAX TEMP:  47; 6HR PCP:  0.17;

SPARTA         CLOUDY    45  39  78 NE8       30.06R
6HR MIN TEMP:  42; 6HR MAX TEMP:  46; 6HR PCP:  0.04;

VIROQUA        CLOUDY    42  40  92 NE9       30.02S
6HR MIN TEMP:  42; 6HR MAX TEMP:  43; 6HR PCP:  0.01;

BOSCOBEL       CLOUDY    46  42  86 NE5       30.01R
6HR MIN TEMP:  45; 6HR MAX TEMP:  46; 6HR PCP:  0.03;

PRAIRIE DU CHI CLOUDY    45  39  81 NE3       30.00S
6HR MIN TEMP:  44; 6HR MAX TEMP:  45; 6HR PCP:  0.04;

PLATTEVILLE    CLOUDY    44  43  97 NE14G22   29.96S
6HR MIN TEMP:  43; 6HR MAX TEMP:  44;

$$

WIZ056-057-062-063-064-067-068-010700-
SOUTH CENTRAL WISCONSIN

CITY           SKY/WX    TMP DP  RH WIND       PRES   REMARKS
REEDSBURG      CLOUDY    43  40  89 NE6       30.03R
6HR MIN TEMP:  43; 6HR MAX TEMP:  43; 6HR PCP:  0.04;

BARABOO/DELLS  CLOUDY    42  40  93 NE6       30.02S
6HR MIN TEMP:  42; 6HR MAX TEMP:  43;

LONE ROCK      CLOUDY    46  40  79 NE9       30.01R
6HR MIN TEMP:  45; 6HR MAX TEMP:  46;

MINERAL POINT  CLOUDY    43  43 100 NE13      29.97S
MADISON        CLOUDY    44  41  89 NE13      29.99F
6HR MIN TEMP:  43; 6HR MAX TEMP:  44; 6HR PCP:  0.07;

MIDDLETON      CLOUDY    45  42  89 NE10      30.00S
6HR MIN TEMP:  44; 6HR MAX TEMP:  45; 6HR PCP:  0.02;

WATERTOWN      CLOUDY    44  44 100 NE7       29.98F
6HR MIN TEMP:  41; 6HR MAX TEMP:  44; 6HR PCP:  0.20;

MONROE         CLOUDY    43  41  93 NE16      29.94F
JANESVILLE     CLOUDY    45  45 100 NE9       29.95S FOG
$$

WIZ051-052-058>065-066-070>072-010700-
SOUTHEAST WISCONSIN

CITY           SKY/WX    TMP DP  RH WIND       PRES   REMARKS
MILWAUKEE      CLOUDY    44  41  89 NE16G24   29.97S
6HR MIN TEMP:  42; 6HR MAX TEMP:  44; 6HR PCP:  0.22;

WAUKESHA       CLOUDY    41  41 100 NE12      29.98F
MILWAUKEE/TIMM CLOUDY    43  39  87 NE12G17   29.99S
RACINE         CLOUDY    43  41  93 NE16      29.97F
6HR MIN TEMP:  42; 6HR MAX TEMP:  44; 6HR PCP:  0.18;

BURLINGTON     CLOUDY    43  42  99 NE9G16    29.95F FOG
6HR MIN TEMP:  41; 6HR MAX TEMP:  44; 6HR PCP:  0.05;

KENOSHA        CLOUDY    45  42  89 NE17G23   29.94F FOG
6HR MIN TEMP:  43; 6HR MAX TEMP:  45; 6HR PCP:  0.05;

FOND DU LAC    CLOUDY    45  37  73 NE10      30.04S
6HR MIN TEMP:  44; 6HR MAX TEMP:  47; 6HR PCP:  0.10;

SHEBOYGAN      CLOUDY    42  37  82 N7        30.03R
6HR MIN TEMP:  41; 6HR MAX TEMP:  45; 6HR PCP:  0.10;

WEST BEND      DRIZZLE   43  41  93 NE9       30.00F
JUNEAU         DRIZZLE   42  41  95 N7        30.02S
6HR MIN TEMP:  42; 6HR MAX TEMP:  43; 6HR PCP:  0.13;

$$

LSZ147-162-010700-
LAKE SUPERIOR

STATION/POSITION TIME  TEMP    WIND        PRES    WAVE
                       AIR SEA DIR/SP/G            HT/PER
                 (UTC) (F)     (DEG/KT/KT) (MB)    (FT/S)
W MID LAKE BUOY  0550   39 37   30/ 12/ 12 1024.3S   1/ 4
DEVILS ISLAND    0600   40      50/ 14/ 15 1024.6R
PORT WING        0500   38      40/ 11/ 12 1023.7S
SAXON HARBOR     0540   35      CALM  /  1 1022.4F
$$

LMZ867-665-643>646-010700-
LAKE MICHIGAN

STATION/POSITION TIME  TEMP    WIND        PRES    WAVE
                       AIR SEA DIR/SP/G            HT/PER
                 (UTC) (F)     (DEG/KT/KT) (MB)    (FT/S)
CHAMBERS ISLAND  0500   42     360/ 14/ 17 1019.0F
N MIC1F1C2F2C3F3C4F4C5F5C6F6C7F7C8M1C9M2Ca!



USA.gov is the U.S. government's official web portal to all federal, state and local government web resources and services.